Location: Hohe Wand Kleine Kanzel
(47.8330°N, 16.0170°E)
Time: 17:40:37
(UTC+02:00)

Vanguard 3 - Pass Details

Date: 09 August 2021
Orbit: 510 x 3260 km, 33.4° (Epoch: 23 September)

Event Time Altitude Azimuth Distance (km) Brightness Sun altitude
Rises 21:07:39 0° 269° (W) 5,762 12.5 -8.0°
Reaches altitude 10° 21:11:26 10° 261° (W) 5,093 11.9 -8.5°
Maximum altitude 21:25:10 36° 203° (SSW) 4,151 10.6 -10.4°
Enters shadow 21:41:14 11° 147° (SSE) 6,039 11.0 -12.5°
